[[{"header":{"parameterUnit":"m.s-1","parameterCategory":1,"la1":30.2991,"la2":30.254,"lo1":-89.0895,"lo2":-89.0444,"dy":0.0017,"dx":0.0017,"nx":28,"ny":28,"refTime":"2024-08-17T21:00:00:Z","depth":0,"parameterNumber":2,"parameterNumberName":"U-component_of_WINDS"},"data":[0,0,0,0,0,0,0,0,0,0,0,0,0,0,0,0,0,0,0,0,0,0,0,0,0,0,0,0,0,0,0,0,0,0,0,0,0,0,0,0,0,0,0,0,0,0,0,0,0,0,0,0,0,0,0,0,0,0,3.1553,3.1554,0,3.1598,3.1598,3.1599,3.1523,3.1521,3.1518,3.1516,3.1562,3.1565,3.1569,0,0,0,0,0,0,0,0,0,0,0,0,0,3.1407,3.141,3.1553,3.1554,3.1554,3.1598,3.1598,3.1599,3.1524,3.1521,3.1517,3.1514,3.1561,3.1565,3.1569,0,0,0,0,0,0,0,0,0,0,0,0,0,3.1463,3.1411,3.1553,3.1522,3.152,3.1597,3.1598,3.1599,3.1524,3.152,3.1517,3.1513,3.1559,3.1565,3.157,3.168,0,0,3.1587,3.1589,0,0,0,0,0,0,0,0,3.146,3.1468,3.1526,3.1524,3.1522,3.1551,3.1563,3.1626,3.1525,3.1523,3.1516,3.1511,3.1561,3.1566,3.1583,3.1682,3.1684,3.1587,3.159,3.1593,3.1594,0,0,0,0,0,0,0,3.1456,3.1466,3.1571,3.1527,3.1525,3.1507,3.1511,3.1575,3.1563,3.1523,3.1517,3.1523,3.156,3.1578,3.1584,3.1685,3.1587,3.1592,3.1595,3.1597,3.1881,3.1885,0,0,0,0,0,0,3.1456,3.1463,3.1569,3.1572,3.1481,3.1513,3.1517,3.1546,3.1562,3.1561,3.1527,3.152,3.1571,3.1578,3.1585,3.1718,3.1593,3.1598,3.1601,3.1877,3.1882,3.1887,0,0,0,0,0,0,3.1453,3.1466,3.1568,3.1516,3.1528,3.1519,3.1552,3.1548,3.1567,3.1565,3.1563,3.1548,3.1568,3.1577,3.1658,3.1718,3.16,3.1605,3.1872,3.1878,3.1884,3.1983,0,0,0,0,0,0,3.1449,3.1465,3.1506,3.1518,3.1531,3.1639,3.1556,3.1552,3.1576,3.1568,3.1584,3.1583,3.1566,3.165,3.1663,3.1724,3.1609,3.1866,3.1875,3.1882,3.1974,3.1992,3.2007,0,0,0,0,0,3.1444,3.1532,3.1509,3.1522,3.1582,3.1643,3.165,3.1628,3.1581,3.1623,3.1623,3.1583,3.171,3.1659,3.1673,3.1736,3.1862,3.1872,3.1882,3.1967,3.1988,3.2007,0,0,0,0,0,0,3.1527,3.1532,3.1507,3.1601,3.1622,3.163,3.1682,3.1651,3.1686,3.1676,3.1647,3.1652,3.1739,3.1745,3.1689,3.1846,3.1778,3.1791,3.1838,3.1859,3.1875,3.1872,3.1614,0,0,0,0,0,3.1556,3.1604,3.1607,3.1689,3.1701,3.169,3.1716,3.1697,3.1718,3.1726,3.1731,3.1754,3.1799,3.1829,3.187,3.1975,3.1979,3.2025,3.2042,3.2055,3.2067,3.2126,3.2148,3.1918,3.1918,3.1918,0,0,3.1617,3.1626,3.1658,3.1707,3.1721,3.1773,3.1698,3.1755,3.1794,3.1735,3.1812,3.1817,3.184,3.1934,3.1976,3.1942,3.2131,3.2067,3.2078,3.2083,3.2138,3.216,3.2179,3.1925,3.1924,3.1922,0,0,3.1755,3.1766,3.1837,3.1853,3.1876,3.1868,3.1886,3.1899,3.19,3.1977,3.1935,3.1981,3.2058,3.2077,3.2097,3.2246,3.2212,3.226,3.2346,3.2404,3.2423,3.2438,3.2494,3.2514,3.2272,3.2272,3.2272,0,3.1828,3.1904,3.1878,3.1939,3.1963,3.1912,3.1986,3.2003,3.2038,3.2056,3.2018,3.2116,3.2128,3.2227,3.2264,3.2281,3.2302,3.2258,3.2422,3.2438,3.2452,3.2505,3.2526,3.2278,3.2277,3.2277,3.2276,0,3.1994,3.2047,3.2102,3.2139,3.2169,3.2236,3.2222,3.2255,3.2235,3.2232,3.2312,3.2325,3.2369,3.2391,3.2371,3.2489,3.2468,3.2426,3.2358,3.248,3.253,3.2549,3.2287,3.2284,3.2283,3.2281,0,0,3.2184,3.2207,3.2228,3.2245,3.2268,3.2309,3.2375,3.2419,3.2449,3.2476,3.2532,3.26,3.2563,3.2586,3.2568,3.2618,3.2739,3.2571,3.2571,3.2604,3.2873,3.2906,3.293,3.2716,3.272,3.2723,3.2872,0,3.2323,3.2437,3.2417,3.2528,3.2579,3.2533,3.2591,3.2612,3.2611,3.2655,3.2655,3.2705,3.265,3.2664,3.2712,3.2714,3.2793,3.2703,3.277,3.2773,3.2768,3.2955,3.2989,3.3129,3.2891,3.2894,3.2897,0,3.25,3.2535,3.2651,3.2669,3.2689,3.2742,3.2782,3.2824,3.2848,3.2844,3.2871,3.2845,3.2912,3.2843,3.2938,3.2877,3.2903,3.2909,3.2914,3.292,3.2843,3.2969,3.3173,3.3195,3.2926,3.2924,3.2922,0,3.2631,3.2706,3.2786,3.2802,3.2824,3.2862,3.2873,3.2893,3.2922,3.2957,3.2976,3.3018,3.3042,3.3077,3.3063,3.3013,3.3162,3.309,3.3163,3.3163,3.3197,3.3195,3.341,3.3211,3.3211,3.321,3.321,0,3.279,3.2863,3.2846,3.2895,3.2977,3.2954,3.3037,3.3042,3.3061,3.3112,3.3074,3.3123,3.3102,3.315,3.3139,3.3221,3.3232,3.3232,3.3229,3.3237,3.3237,3.3255,3.3245,3.3216,3.3215,3.3213,3.3212,0,3.295,3.294,3.3025,3.3039,3.3045,3.3105,3.3118,3.3165,3.3162,3.3228,3.3242,3.3238,3.3293,3.3283,3.3343,3.3337,3.344,3.3423,3.3432,3.3429,3.3503,3.3497,3.3738,3.377,3.3548,3.355,3.3552,0,3.3052,3.3108,3.3129,3.316,3.3175,3.3225,3.3255,3.3235,3.3268,3.3301,3.3345,3.3397,3.3437,3.3528,3.3531,3.3578,3.3564,3.3645,3.3571,3.3578,3.3568,3.3566,3.3573,3.3661,3.3663,3.3665,3.3667,0,3.3236,3.323,3.3273,3.3317,3.3353,3.3386,3.3415,3.3444,3.3427,3.3465,3.3521,3.3553,3.3616,3.3669,3.3713,3.3725,3.3695,3.369,3.371,3.3719,3.3723,3.3725,3.3475,3.3685,3.3683,3.3682,3.3681,3.368,3.3372,3.3421,3.3444,3.3495,3.3515,3.3544,3.3591,3.3594,3.364,3.369,3.3676,3.374,3.3766,3.3822,3.384,3.3891,3.3861,3.3889,3.3896,3.3904,3.3914,3.3714,3.3899,3.3898,3.3898,3.3897,3.3897,0,3.3557,3.357,3.3617,3.366,3.3701,3.3667,3.3699,3.3736,3.3793,3.3819,3.386,3.3926,3.3978,3.3986,3.4036,3.4076,3.4063,3.409,3.4087,3.4092,3.3937,3.3916,3.4099,3.4099,3.4099,3.4099,3.4099,3.4099,3.3658,3.374,3.3736,3.3829,3.3841,3.3904,3.3925,3.3953,3.3974,3.4049,3.4092,3.4097,3.4117,3.4168,3.4215,3.4216,3.4238,3.427,3.4267,3.4122,3.4102,3.4083,3.4063,3.4274,3.4275,3.4417,3.4419,3.442]},{"header":{"parameterUnit":"m.s-1","parameterCategory":1,"la1":30.2991,"la2":30.254,"lo1":-89.0895,"lo2":-89.0444,"dy":0.0017,"dx":0.0017,"nx":28,"ny":28,"refTime":"2024-08-17T21:00:00:Z","depth":0,"parameterNumber":3,"parameterNumberName":"V-component_of_WINDS"},"data":[0,0,0,0,0,0,0,0,0,0,0,0,0,0,0,0,0,0,0,0,0,0,0,0,0,0,0,0,0,0,0,0,0,0,0,0,0,0,0,0,0,0,0,0,0,0,0,0,0,0,0,0,0,0,0,0,0,0,-3.9986,-3.9988,0,-4.0145,-4.0147,-4.0149,-4.0183,-4.0182,-4.0181,-4.018,-4.0338,-4.0343,-4.0348,0,0,0,0,0,0,0,0,0,0,0,0,0,-3.9709,-3.9713,-3.9986,-3.9988,-3.999,-4.0145,-4.0147,-4.015,-4.0183,-4.0182,-4.0181,-4.0179,-4.0336,-4.0343,-4.0349,0,0,0,0,0,0,0,0,0,0,0,0,0,-3.9844,-3.9715,-3.9986,-4.0026,-4.0031,-4.0145,-4.0147,-4.015,-4.0184,-4.0182,-4.018,-4.0179,-4.0334,-4.0342,-4.035,-4.0434,0,0,-4.0374,-4.0378,0,0,0,0,0,0,0,0,-3.9837,-3.9855,-4.0018,-4.0023,-4.0029,-4.0143,-4.0108,-4.0245,-4.0184,-4.0125,-4.018,-4.0178,-4.0274,-4.0287,-4.0321,-4.0441,-4.0448,-4.0375,-4.038,-4.0383,-4.0385,0,0,0,0,0,0,0,-3.9827,-3.9848,-4.0049,-4.002,-4.0027,-4.0035,-4.0052,-4.0134,-4.0207,-4.013,-4.0133,-4.0152,-4.0277,-4.0313,-4.0324,-4.045,-4.0375,-4.0382,-4.0387,-4.039,-4.0649,-4.0651,0,0,0,0,0,0,-3.9811,-3.984,-4.0044,-4.0054,-3.9927,-4.0041,-4.0061,-4.0108,-4.0207,-4.022,-4.0153,-4.0153,-4.03,-4.0315,-4.033,-4.0436,-4.0383,-4.039,-4.0395,-4.0647,-4.0649,-4.0652,0,0,0,0,0,0,-3.9805,-3.9829,-4.0037,-3.9948,-3.9975,-4.0048,-4.0101,-4.0112,-4.0148,-4.0224,-4.0237,-4.0177,-4.0299,-4.0319,-4.0408,-4.0441,-4.0394,-4.0401,-4.0644,-4.0648,-4.0651,-4.0646,0,0,0,0,0,0,-3.9797,-3.9827,-3.986,-3.9948,-3.998,-4.0114,-4.0103,-4.0116,-4.0162,-4.0163,-4.0249,-4.0262,-4.0299,-4.0396,-4.0416,-4.0452,-4.0407,-4.0642,-4.0646,-4.065,-4.0644,-4.0649,-4.0653,0,0,0,0,0,-3.9787,-3.9851,-3.9861,-3.9886,-4.0022,-4.0116,-4.0133,-4.0177,-4.0165,-4.0198,-4.0248,-4.0259,-4.0435,-4.0405,-4.0428,-4.0466,-4.064,-4.0645,-4.0649,-4.0641,-4.0648,-4.0653,0,0,0,0,0,0,-3.9762,-3.9863,-3.9876,-3.997,-4.0034,-4.0121,-4.0164,-4.0182,-4.0249,-4.0247,-4.0297,-4.0316,-4.0402,-4.0443,-4.0408,-4.0553,-4.0537,-4.0546,-4.0523,-4.053,-4.0534,-4.0522,-4.0414,0,0,0,0,0,-3.9768,-3.9836,-3.992,-3.9995,-4.0027,-4.009,-4.0132,-4.0161,-4.0228,-4.0255,-4.0311,-4.0375,-4.0445,-4.049,-4.0558,-4.065,-4.067,-4.0688,-4.0693,-4.0696,-4.0703,-4.0756,-4.0765,-4.0667,-4.0667,-4.0667,0,0,-3.978,-3.9843,-3.9883,-3.9992,-4.0045,-4.0114,-4.0113,-4.0185,-4.0237,-4.0266,-4.0354,-4.0397,-4.0472,-4.0564,-4.0607,-4.0601,-4.0735,-4.0702,-4.0705,-4.071,-4.0762,-4.0771,-4.0779,-4.0671,-4.067,-4.067,0,0,-3.9836,-3.9892,-3.9961,-4.0015,-4.0096,-4.0138,-4.0155,-4.024,-4.0271,-4.0361,-4.0385,-4.0446,-4.0565,-4.0618,-4.0661,-4.0741,-4.0754,-4.0762,-4.0786,-4.0837,-4.0844,-4.0851,-4.088,-4.0889,-4.0769,-4.0769,-4.0769,0,-3.984,-3.9946,-3.9994,-4.0067,-4.0114,-4.0146,-4.0216,-4.0266,-4.0365,-4.0396,-4.0389,-4.054,-4.0593,-4.0698,-4.0718,-4.0751,-4.0771,-4.0751,-4.084,-4.0847,-4.0854,-4.0882,-4.0893,-4.0769,-4.0769,-4.0769,-4.0769,0,-3.9947,-4.002,-4.0067,-4.0163,-4.0216,-4.0287,-4.0345,-4.0393,-4.0417,-4.046,-4.0552,-4.0617,-4.0699,-4.0727,-4.075,-4.0835,-4.0829,-4.083,-4.0814,-4.0863,-4.089,-4.0901,-4.077,-4.077,-4.077,-4.0769,0,0,-3.999,-4.0115,-4.0131,-4.0176,-4.0269,-4.0326,-4.0399,-4.0482,-4.0522,-4.059,-4.0651,-4.0753,-4.0756,-4.0804,-4.0834,-4.0879,-4.0938,-4.0874,-4.0877,-4.0883,-4.1036,-4.1034,-4.1046,-4.0949,-4.0951,-4.0953,-4.103,0,-4.0058,-4.019,-4.0236,-4.0345,-4.0413,-4.0446,-4.051,-4.0574,-4.0616,-4.068,-4.0727,-4.0798,-4.0796,-4.0825,-4.0871,-4.0921,-4.0969,-4.0916,-4.1005,-4.1008,-4.0984,-4.106,-4.1058,-4.1127,-4.1041,-4.1043,-4.1044,0,-4.0154,-4.0225,-4.0341,-4.0428,-4.0458,-4.0515,-4.0595,-4.0656,-4.0729,-4.0757,-4.0813,-4.0841,-4.0917,-4.0899,-4.1005,-4.0968,-4.1008,-4.1038,-4.1042,-4.1051,-4.1028,-4.107,-4.1151,-4.116,-4.1061,-4.106,-4.1058,0,-4.0173,-4.0298,-4.0384,-4.0422,-4.0525,-4.0564,-4.0608,-4.068,-4.0728,-4.0798,-4.083,-4.0908,-4.095,-4.1009,-4.1057,-4.1039,-4.1159,-4.1144,-4.1184,-4.1183,-4.1206,-4.1204,-4.1293,-4.1233,-4.1233,-4.1233,-4.1233,0,-4.0243,-4.0313,-4.0395,-4.0447,-4.0526,-4.0579,-4.0656,-4.0702,-4.0767,-4.0829,-4.0862,-4.0919,-4.0979,-4.1044,-4.1082,-4.1165,-4.1184,-4.1208,-4.1217,-4.1204,-4.1201,-4.123,-4.1225,-4.1236,-4.1235,-4.1235,-4.1234,0,-4.0277,-4.0335,-4.0431,-4.0522,-4.0547,-4.0601,-4.0678,-4.073,-4.0776,-4.0854,-4.0875,-4.0946,-4.1024,-4.1079,-4.1178,-4.1204,-4.1293,-4.1302,-4.1269,-4.1273,-4.1309,-4.1305,-4.1419,-4.1437,-4.1366,-4.1366,-4.1367,0,-4.0318,-4.0372,-4.047,-4.0515,-4.056,-4.0631,-4.0681,-4.0736,-4.0786,-4.0875,-4.0916,-4.0998,-4.1066,-4.1189,-4.1249,-4.1326,-4.1336,-4.1371,-4.1348,-4.1334,-4.1336,-4.1332,-4.1337,-4.1374,-4.1374,-4.1375,-4.1375,0,-4.0383,-4.041,-4.048,-4.0562,-4.062,-4.0687,-4.0753,-4.0788,-4.0854,-4.0909,-4.0991,-4.1044,-4.1148,-4.1228,-4.1311,-4.1356,-4.1377,-4.1383,-4.1396,-4.1383,-4.1361,-4.1373,-4.1278,-4.1379,-4.1379,-4.1378,-4.1378,-4.1378,-4.0421,-4.0472,-4.0549,-4.0627,-4.0684,-4.0746,-4.08,-4.0853,-4.0923,-4.1013,-4.1041,-4.1126,-4.1199,-4.1314,-4.136,-4.1427,-4.1424,-4.1443,-4.1448,-4.1452,-4.1451,-4.1352,-4.1443,-4.1443,-4.1443,-4.1443,-4.1442,0,-4.0488,-4.054,-4.0611,-4.0705,-4.0766,-4.0783,-4.0858,-4.0908,-4.0983,-4.1051,-4.1118,-4.1212,-4.1291,-4.1358,-4.1439,-4.148,-4.1491,-4.1499,-4.1496,-4.1506,-4.1449,-4.1429,-4.1489,-4.1489,-4.1489,-4.1489,-4.1489,-4.1489,-4.0529,-4.0616,-4.0652,-4.0767,-4.0819,-4.0904,-4.0945,-4.1003,-4.1057,-4.1162,-4.1228,-4.1272,-4.134,-4.1427,-4.15,-4.1517,-4.1545,-4.1551,-4.157,-4.1515,-4.151,-4.1505,-4.1487,-4.1557,-4.1557,-4.1622,-4.1622,-4.1623]}]]